"Date Time","Temp","Baro","Humidity","Rain","Wind speed","Wind gust","Wind dir","Wind gust dir","Dew point","Wind chill","Heat index","radiation","UV"
"2019-12-13 00:15:00","6.3","968.7","91","0","0","0","","","4.9","6.3","6.3","0","0"
"2019-12-13 00:20:00","6.3","968.7","91","0","0","0","","","4.9","6.3","6.3","0","0"
"2019-12-13 00:25:00","6.3","968.6","91","0","0","0","","","4.9","6.3","6.3","0","0"
"2019-12-13 00:30:00","6.3","968.5","91","0","0","0","","","4.9","6.3","6.3","0","0"
"2019-12-13 00:35:00","6.3","968.5","91","0","0","0","","","4.9","6.3","6.3","0","0"
"2019-12-13 00:40:00","6.2","968.4","91","0","0","0","","","4.9","6.2","6.2","0","0"
"2019-12-13 00:45:00","6.2","968.4","91","0","0","0","","","4.9","6.2","6.2","0","0"
"2019-12-13 00:50:00","6.2","968.4","91","0","1","4","225","225","4.9","6.2","6.2","0","0"
"2019-12-13 00:55:00","6.2","968.3","91","0","0","0","","","4.9","6.2","6.2","0","0"
"2019-12-13 01:00:00","6.2","968.3","91","0","0","3","225","225","4.9","6.2","6.2","0","0"
"2019-12-13 01:05:00","6.2","968.3","91","0.254","0","0","","","4.8","6.2","6.2","0","0"
"2019-12-13 01:10:00","6.2","968.2","91","0","0","2","225","225","4.8","6.2","6.2","0","0"
"2019-12-13 01:15:00","6.2","968.3","91","0","1","6","225","225","4.8","6.2","6.2","0","0"
"2019-12-13 01:20:00","6.1","968.2","91","0.254","0","4","225","225","4.8","6.1","6.1","0","0"
"2019-12-13 01:25:00","6.1","968.2","91","0","0","4","225","225","4.7","6.1","6.1","0","0"
"2019-12-13 01:30:00","6","968.2","91","0","0","7","225","225","4.6","6","6","0","0"
"2019-12-13 01:35:00","5.9","968.4","91","0.254","0","2","225","225","4.6","5.9","5.9","0","0"
"2019-12-13 01:40:00","5.9","968.3","91","0","0","1","225","225","4.6","5.9","5.9","0","0"
"2019-12-13 01:45:00","5.9","968.3","91","0.254","0","3","225","225","4.5","5.9","5.9","0","0"
"2019-12-13 01:50:00","5.8","968.4","91","0","1","6","225","225","4.5","5.8","5.8","0","0"
"2019-12-13 01:55:00","5.8","968.4","91","0","1","5","225","225","4.4","5.8","5.8","0","0"
"2019-12-13 02:00:00","5.8","968.4","91","0.254","1","5","225","225","4.4","5.8","5.8","0","0"
"2019-12-13 02:05:00","5.7","968.4","91","0","1","5","225","225","4.4","5.7","5.7","0","0"
"2019-12-13 02:10:00","5.7","968.4","91","0","1","5","225","225","4.4","5.7","5.7","0","0"
"2019-12-13 02:15:00","5.7","968.4","91","0","1","6","225","225","4.3","5.7","5.7","0","0"
"2019-12-13 02:20:00","5.7","968.4","91","0","0","4","225","225","4.3","5.7","5.7","0","0"
"2019-12-13 02:25:00","5.6","968.5","91","0","1","5","225","225","4.3","5.6","5.6","0","0"
"2019-12-13 02:30:00","5.6","968.5","91","0.254","0","0","","","4.2","5.6","5.6","0","0"
"2019-12-13 02:35:00","5.6","968.5","91","0","0","0","","","4.2","5.6","5.6","0","0"
"2019-12-13 02:40:00","5.5","968.5","91","0.254","0","0","","","4.1","5.5","5.5","0","0"
"2019-12-13 02:45:00","5.5","968.6","91","0.254","0","0","","","4.1","5.5","5.5","0","0"
"2019-12-13 02:50:00","5.4","968.7","91","0","0","0","","","4.1","5.4","5.4","0","0"
"2019-12-13 02:55:00","5.4","968.6","91","0.254","0","0","","","4.1","5.4","5.4","0","0"
"2019-12-13 03:00:00","5.4","968.7","91","0","0","1","225","225","4.1","5.4","5.4","0","0"
"2019-12-13 03:05:00","5.4","968.7","91","0.254","0","3","225","225","4.1","5.4","5.4","0","0"
"2019-12-13 03:10:00","5.4","968.7","91","0","0","4","225","225","4.1","5.4","5.4","0","0"
"2019-12-13 03:15:00","5.4","968.7","91","0.254","0","0","","","4.1","5.4","5.4","0","0"
"2019-12-13 03:20:00","5.4","968.7","91","0","1","5","225","225","4.1","5.4","5.4","0","0"
"2019-12-13 03:25:00","5.4","968.8","91","0","2","7","247.5","247.5","4.1","5.4","5.4","0","0"
"2019-12-13 03:30:00","5.5","968.9","91","0","3","10","225","225","4.1","5.5","5.5","0","0"
"2019-12-13 03:35:00","5.4","968.9","91","0","3","9","225","247.5","4.1","5.4","5.4","0","0"
"2019-12-13 03:40:00","5.4","969","91","0.254","4","10","225","225","4.1","4.1","5.4","0","0"
"2019-12-13 03:45:00","5.4","969.1","91","0","2","9","225","225","4","5.4","5.4","0","0"
"2019-12-13 03:50:00","5.4","969.1","91","0","3","12","247.5","247.5","4","5.4","5.4","0","0"
"2019-12-13 03:55:00","5.3","969.2","91","0","3","10","225","247.5","4","5.3","5.3","0","0"
"2019-12-13 04:00:00","5.3","969.3","91","0","1","10","225","202.5","3.9","5.3","5.3","0","0"
"2019-12-13 04:05:00","5.3","969.3","91","0","1","6","180","67.5","3.9","5.3","5.3","0","0"
"2019-12-13 04:10:00","5.2","969.4","91","0","2","12","202.5","247.5","3.9","5.2","5.2","0","0"
"2019-12-13 04:15:00","5.2","969.5","91","0","1","5","135","157.5","3.9","5.2","5.2","0","0"
"2019-12-13 04:20:00","5.2","969.5","91","0","2","10","202.5","45","3.8","5.2","5.2","0","0"
"2019-12-13 04:25:00","5.1","969.6","91","0","2","12","247.5","247.5","3.8","5.1","5.1","0","0"
"2019-12-13 04:30:00","5.1","969.8","91","0","2","8","225","247.5","3.7","5.1","5.1","0","0"
"2019-12-13 04:35:00","5","969.9","91","0","3","11","202.5","247.5","3.7","5","5","0","0"
"2019-12-13 04:40:00","4.9","970","91","0","2","10","247.5","247.5","3.6","4.9","4.9","0","0"
"2019-12-13 04:45:00","4.9","970","91","0","1","7","270","225","3.5","4.9","4.9","0","0"
"2019-12-13 04:50:00","4.8","970.2","91","0","1","11","225","225","3.5","4.8","4.8","0","0"
"2019-12-13 04:55:00","4.8","970.4","91","0.254","1","10","247.5","247.5","3.4","4.8","4.8","0","0"
"2019-12-13 05:00:00","4.8","970.4","91","0","2","9","45","247.5","3.4","4.8","4.8","0","0"
"2019-12-13 05:05:00","4.7","970.5","91","0.254","3","15","247.5","247.5","3.4","4.7","4.7","0","0"
"2019-12-13 05:10:00","4.7","970.7","91","0","3","13","225","225","3.3","4.7","4.7","0","0"
"2019-12-13 05:15:00","4.6","970.8","91","0.254","2","10","247.5","247.5","3.3","4.6","4.6","0","0"
"2019-12-13 05:20:00","4.6","970.9","91","0.254","1","13","247.5","247.5","3.3","4.6","4.6","0","0"
"2019-12-13 05:25:00","4.6","971","91","0","1","5","180","157.5","3.3","4.6","4.6","0","0"
"2019-12-13 05:30:00","4.6","971.2","91","0.254","1","4","202.5","180","3.2","4.6","4.6","0","0"
"2019-12-13 05:35:00","4.6","971.3","91","0.254","1","11","247.5","247.5","3.2","4.6","4.6","0","0"
"2019-12-13 05:40:00","4.6","971.4","91","0","1","9","337.5","45","3.2","4.6","4.6","0","0"
"2019-12-13 05:45:00","4.6","971.5","91","0","1","7","292.5","247.5","3.2","4.6","4.6","0","0"
"2019-12-13 05:50:00","4.5","971.6","91","0","0","5","247.5","112.5","3.2","4.5","4.5","0","0"
"2019-12-13 05:55:00","4.5","971.6","91","0.254","0","3","157.5","112.5","3.2","4.5","4.5","0","0"
"2019-12-13 06:00:00","4.5","971.7","91","0","0","3","157.5","157.5","3.2","4.5","4.5","0","0"
"2019-12-13 06:05:00","4.5","971.8","91","0","1","6","157.5","202.5","3.2","4.5","4.5","0","0"
"2019-12-13 06:10:00","4.5","972","91","0.254","1","11","202.5","225","3.2","4.5","4.5","0","0"
"2019-12-13 06:15:00","4.5","972.2","91","0","3","9","225","247.5","3.2","4.5","4.5","0","0"
"2019-12-13 06:20:00","4.5","972.2","91","0.254","3","11","247.5","247.5","3.2","4.5","4.5","0","0"
"2019-12-13 06:25:00","4.5","972.3","91","0","2","6","225","247.5","3.2","4.5","4.5","0","0"
"2019-12-13 06:30:00","4.6","972.5","91","0.254","2","5","225","225","3.2","4.6","4.6","0","0"
"2019-12-13 06:35:00","4.6","972.6","91","0","3","9","225","247.5","3.2","4.6","4.6","0","0"
"2019-12-13 06:40:00","4.6","972.7","91","0.254","2","11","225","202.5","3.2","4.6","4.6","0","0"
"2019-12-13 06:45:00","4.6","972.8","91","0","3","11","225","202.5","3.3","4.6","4.6","0","0"
"2019-12-13 06:50:00","4.6","972.8","91","0.254","2","9","225","225","3.3","4.6","4.6","0","0"
"2019-12-13 06:55:00","4.7","973","91","0","3","8","225","225","3.3","4.7","4.7","0","0"
"2019-12-13 07:00:00","4.6","973.1","91","0","4","9","247.5","247.5","3.3","3.1","4.6","0","0"
"2019-12-13 07:05:00","4.7","973.3","92","0","2","9","247.5","247.5","3.5","4.7","4.7","0","0"
"2019-12-13 07:10:00","4.6","973.4","91","0","3","11","247.5","225","3.3","4.6","4.6","0","0"
"2019-12-13 07:15:00","4.6","973.5","91","0","3","8","247.5","247.5","3.3","4.6","4.6","0","0"
"2019-12-13 07:20:00","4.6","973.6","92","0","4","10","247.5","202.5","3.4","3.1","4.6","0","0"
"2019-12-13 07:25:00","4.6","973.8","91","0","3","10","225","247.5","3.3","4.6","4.6","0","0"
"2019-12-13 07:30:00","4.6","974","92","0","4","9","247.5","247.5","3.4","3.1","4.6","0","0"
"2019-12-13 07:35:00","4.7","974","91","0","3","9","247.5","247.5","3.3","4.7","4.7","0","0"
"2019-12-13 07:40:00","4.7","974.2","91","0","3","11","225","247.5","3.3","4.7","4.7","0","0"
"2019-12-13 07:45:00","4.7","974.3","91","0","4","10","247.5","247.5","3.3","3.2","4.7","0","0"
"2019-12-13 07:50:00","4.7","974.3","91","0","3","10","247.5","225","3.3","4.7","4.7","0","0"
"2019-12-13 07:55:00","4.7","974.4","91","0","4","10","247.5","247.5","3.3","3.2","4.7","0","0"
"2019-12-13 08:00:00","4.7","974.5","91","0","4","10","247.5","225","3.3","3.2","4.7","0","0"
"2019-12-13 08:05:00","4.7","974.7","91","0","3","9","247.5","247.5","3.3","4.7","4.7","0","0"
"2019-12-13 08:10:00","4.7","974.8","91","0","3","8","247.5","247.5","3.3","4.7","4.7","0","0"
"2019-12-13 08:15:00","4.7","975","91","0","2","10","225","247.5","3.3","4.7","4.7","0","0"
"2019-12-13 08:20:00","4.7","975","91","0","1","6","247.5","247.5","3.3","4.7","4.7","1","0"
"2019-12-13 08:25:00","4.7","975.1","91","0","2","11","247.5","247.5","3.3","4.7","4.7","5","0"
"2019-12-13 08:30:00","4.7","975.3","91","0","3","5","247.5","247.5","3.3","4.7","4.7","7","0"
"2019-12-13 08:35:00","4.7","975.4","91","0","3","11","247.5","202.5","3.4","4.7","4.7","8","0"
"2019-12-13 08:40:00","4.7","975.5","91","0","1","7","247.5","247.5","3.4","4.7","4.7","11","0"
"2019-12-13 08:45:00","4.7","975.6","91","0","3","10","247.5","247.5","3.4","4.7","4.7","9","0"
"2019-12-13 08:50:00","4.7","975.6","92","0","4","9","247.5","225","3.5","3.3","4.7","12","0"
"2019-12-13 08:55:00","4.7","975.7","92","0","3","7","247.5","247.5","3.5","4.7","4.7","12","0"
"2019-12-13 09:00:00","4.7","975.9","92","0","2","10","247.5","247.5","3.5","4.7","4.7","12","0"
"2019-12-13 09:05:00","4.7","976","92","0","4","9","225","225","3.5","3.3","4.7","14","0"
"2019-12-13 09:10:00","4.8","976.2","92","0","3","11","202.5","180","3.6","4.8","4.8","14","0"
"2019-12-13 09:15:00","4.8","976.1","92","0","4","11","247.5","247.5","3.6","3.3","4.8","16","0"
"2019-12-13 09:20:00","4.8","976.2","92","0","5","15","247.5","247.5","3.6","2.9","4.8","19","0"
"2019-12-13 09:25:00","4.8","976.4","92","0","5","11","247.5","247.5","3.6","2.9","4.8","25","0"
"2019-12-13 09:30:00","4.8","976.5","92","0","5","11","225","247.5","3.6","2.9","4.8","26","0"
"2019-12-13 09:35:00","4.9","976.6","92","0","4","10","247.5","225","3.7","3.5","4.9","26","0"
"2019-12-13 09:40:00","4.9","976.6","92","0","4","13","247.5","247.5","3.8","3.5","4.9","29","0"
"2019-12-13 09:45:00","4.9","976.8","92","0","5","12","247.5","180","3.8","3.1","4.9","33","0"
"2019-12-13 09:50:00","5","976.9","91","0","5","13","225","247.5","3.7","3.1","5","38","0"
"2019-12-13 09:55:00","5","977","91","0","6","15","225","180","3.7","2.7","5","61","0"
"2019-12-13 10:00:00","5.1","977.2","91","0","4","10","247.5","247.5","3.7","3.7","5.1","75","0"
"2019-12-13 10:05:00","5.1","977.4","91","0","4","13","247.5","225","3.7","3.7","5.1","60","0"
"2019-12-13 10:10:00","5.2","977.5","92","0","4","11","225","225","4","3.8","5.2","65","0"
"2019-12-13 10:15:00","5.2","977.6","92","0","3","11","247.5","247.5","4","5.2","5.2","69","0"
"2019-12-13 10:20:00","5.2","977.6","92","0","4","8","225","247.5","4","3.9","5.2","80","0"
"2019-12-13 10:25:00","5.3","977.6","92","0","4","11","247.5","247.5","4.1","3.9","5.3","64","0"
"2019-12-13 10:30:00","5.3","977.8","91","0","3","10","247.5","247.5","4","5.3","5.3","53","0"
"2019-12-13 10:35:00","5.3","977.9","91","0","3","11","247.5","247.5","4","5.3","5.3","44","0"
"2019-12-13 10:40:00","5.4","977.9","92","0","3","12","247.5","180","4.2","5.4","5.4","52","0"
"2019-12-13 10:45:00","5.4","978","92","0","3","9","202.5","225","4.2","5.4","5.4","60","0"
"2019-12-13 10:50:00","5.4","978.2","92","0","5","14","247.5","202.5","4.2","3.7","5.4","57","0"
"2019-12-13 10:55:00","5.4","978.2","92","0","5","14","247.5","225","4.2","3.6","5.4","41","0"
"2019-12-13 11:00:00","5.4","978.4","92","0","4","12","247.5","247.5","4.2","4","5.4","43","0"
"2019-12-13 11:05:00","5.4","978.4","91","0","5","13","225","180","4.1","3.7","5.4","35","0"
"2019-12-13 11:10:00","5.5","978.4","91","0","2","10","247.5","247.5","4.1","5.5","5.5","76","0"
"2019-12-13 11:15:00","5.5","978.4","91","0","4","10","247.5","247.5","4.1","4.2","5.5","61","0"
"2019-12-13 11:20:00","5.5","978.4","91","0","5","15","247.5","247.5","4.1","3.7","5.5","73","0"
"2019-12-13 11:25:00","5.5","978.3","91","0","5","12","247.5","247.5","4.1","3.7","5.5","59","0"
"2019-12-13 11:30:00","5.6","978.4","91","0","5","12","247.5","247.5","4.2","3.8","5.6","49","0"
"2019-12-13 11:35:00","5.6","978.4","91","0","4","12","247.5","202.5","4.2","4.2","5.6","55","0"
"2019-12-13 11:40:00","5.6","978.4","91","0","5","16","247.5","247.5","4.3","3.9","5.6","59","0"
"2019-12-13 11:45:00","5.6","978.4","91","0","4","10","225","247.5","4.3","4.3","5.6","85","0"
"2019-12-13 11:50:00","5.7","978.4","91","0","3","10","247.5","247.5","4.3","5.7","5.7","173","0"
"2019-12-13 11:55:00","5.8","978.5","90","0","4","9","225","247.5","4.3","4.6","5.8","95","0"
"2019-12-13 12:00:00","5.9","978.5","90","0","3","11","247.5","225","4.4","5.9","5.9","85","0"
"2019-12-13 12:05:00","6.1","978.5","90","0","3","11","225","225","4.5","6.1","6.1","81","0"
"2019-12-13 12:10:00","6.1","978.5","89","0","5","15","247.5","247.5","4.4","4.4","6.1","64","0"
"2019-12-13 12:15:00","6.1","978.7","89","0","4","9","225","247.5","4.4","4.9","6.1","53","0"
"2019-12-13 12:20:00","6.2","978.6","89","0","4","11","247.5","247.5","4.5","4.9","6.2","71","0"
"2019-12-13 12:25:00","6.2","978.9","89","0","6","14","247.5","225","4.5","4.1","6.2","80","0"
"2019-12-13 12:30:00","6.2","978.9","88","0","6","14","247.5","225","4.3","4.1","6.2","72","0"
"2019-12-13 12:35:00","6.2","979","88","0","5","19","247.5","247.5","4.3","4.5","6.2","67","0"
"2019-12-13 12:40:00","6.2","979.1","88","0","5","14","247.5","202.5","4.4","4.6","6.2","60","0"
"2019-12-13 12:45:00","6.2","979.1","87","0","4","11","202.5","247.5","4.2","5","6.2","62","0"
"2019-12-13 12:50:00","6.3","979.3","87","0","5","15","247.5","225","4.3","4.6","6.3","69","0"
"2019-12-13 12:55:00","6.3","979.1","86","0","6","20","247.5","225","4.2","4.3","6.3","91","0"
"2019-12-13 13:00:00","6.4","979.1","85","0","5","14","225","247.5","4.1","4.8","6.4","74","0"
"2019-12-13 13:05:00","6.7","979.4","84","0","4","11","225","225","4.2","5.5","6.7","101","0"
"2019-12-13 13:10:00","6.8","979.4","82","0","6","17","225","202.5","3.9","4.9","6.8","80","0"
"2019-12-13 13:15:00","6.8","979.5","81","0","6","14","247.5","247.5","3.8","4.9","6.8","82","0"
"2019-12-13 13:20:00","6.8","979.6","80","0","7","14","247.5","247.5","3.6","4.6","6.8","79","0"
"2019-12-13 13:25:00","6.9","979.6","80","0","4","15","247.5","225","3.7","5.8","6.9","139","0"
"2019-12-13 13:30:00","7","979.5","80","0","6","17","247.5","247.5","3.8","5.1","7","159","0"
"2019-12-13 13:35:00","7.2","979.5","79","0","4","13","247.5","247.5","3.8","6.2","7.2","180","0"
"2019-12-13 13:40:00","7.2","979.6","78","0","7","14","247.5","247.5","3.6","5.1","7.2","76","0"
"2019-12-13 13:45:00","7.2","979.6","78","0","6","23","202.5","202.5","3.6","5.4","7.2","77","0"
"2019-12-13 13:50:00","7.2","979.6","78","0","4","11","225","202.5","3.6","6.2","7.2","155","0"
"2019-12-13 13:55:00","7.3","979.8","78","0","7","16","247.5","247.5","3.7","5.2","7.3","142","0"
"2019-12-13 14:00:00","7.3","980","77","0","4","10","247.5","247.5","3.5","6.2","7.3","70","0"
"2019-12-13 14:05:00","7.3","980","77","0","4","12","225","225","3.5","6.2","7.3","65","0"
"2019-12-13 14:10:00","7.2","980.1","77","0","5","13","225","202.5","3.5","5.7","7.2","51","0"
"2019-12-13 14:15:00","7.2","980","77","0","5","15","225","247.5","3.5","5.7","7.2","41","0"
"2019-12-13 14:20:00","7.2","980.1","77","0","3","7","247.5","202.5","3.5","7.2","7.2","33","0"
"2019-12-13 14:25:00","7.2","980.1","77","0","5","13","225","225","3.5","5.7","7.2","26","0"
"2019-12-13 14:30:00","7.2","980","77","0","5","13","202.5","202.5","3.4","5.7","7.2","24","0"
"2019-12-13 14:35:00","7.2","980.1","78","0","5","10","202.5","202.5","3.6","5.7","7.2","24","0"
"2019-12-13 14:40:00","7.1","980.1","78","0","5","15","202.5","202.5","3.5","5.6","7.1","30","0"
"2019-12-13 14:45:00","7","980.1","78","0","6","15","225","202.5","3.4","5.1","7","47","0"
"2019-12-13 14:50:00","6.9","980","78","0","5","15","225","247.5","3.4","5.4","6.9","63","0"
"2019-12-13 14:55:00","6.9","980.1","78","0","4","17","225","202.5","3.4","5.8","6.9","52","0"
"2019-12-13 15:00:00","6.9","980.2","78","0","5","13","247.5","202.5","3.3","5.4","6.9","40","0"
"2019-12-13 15:05:00","6.9","980.1","78","0","7","14","247.5","225","3.3","4.7","6.9","28","0"
"2019-12-13 15:10:00","6.8","980.3","78","0","5","11","225","225","3.3","5.3","6.8","23","0"
"2019-12-13 15:15:00","6.8","980.3","78","0","6","19","247.5","247.5","3.2","4.9","6.8","20","0"
"2019-12-13 15:20:00","6.7","980.4","77","0","5","10","225","247.5","3","5.2","6.7","19","0"
"2019-12-13 15:25:00","6.7","980.4","77","0","4","14","225","247.5","2.9","5.5","6.7","16","0"
"2019-12-13 15:30:00","6.6","980.4","77","0","6","17","202.5","202.5","2.9","4.7","6.6","14","0"
"2019-12-13 15:35:00","6.6","980.4","77","0","5","12","225","225","2.8","5","6.6","13","0"
"2019-12-13 15:40:00","6.5","980.4","77","0","3","10","225","247.5","2.8","6.5","6.5","11","0"
"2019-12-13 15:45:00","6.4","980.6","77","0","4","10","202.5","247.5","2.7","5.3","6.4","8","0"
"2019-12-13 15:50:00","6.4","980.6","77","0","3","11","202.5","247.5","2.7","6.4","6.4","4","0"
"2019-12-13 15:55:00","6.3","980.7","77","0","6","15","202.5","202.5","2.6","4.3","6.3","0","0"
"2019-12-13 16:00:00","6.3","980.7","77","0","5","13","202.5","202.5","2.5","4.6","6.3","0","0"
"2019-12-13 16:05:00","6.2","980.6","77","0","6","21","202.5","202.5","2.5","4.2","6.2","0","0"
"2019-12-13 16:10:00","6.2","980.7","77","0","5","15","225","180","2.4","4.5","6.2","0","0"
"2019-12-13 16:15:00","6.1","980.8","77","0","3","11","225","202.5","2.4","6.1","6.1","0","0"
"2019-12-13 16:20:00","6.1","980.8","77","0","4","11","202.5","202.5","2.3","4.8","6.1","0","0"
"2019-12-13 16:25:00","6","980.7","77","0","4","11","202.5","247.5","2.3","4.8","6","0","0"
"2019-12-13 16:30:00","5.9","980.7","77","0","5","14","247.5","202.5","2.2","4.2","5.9","0","0"
"2019-12-13 16:35:00","5.9","980.7","77","0","4","11","225","247.5","2.2","4.6","5.9","0","0"
"2019-12-13 16:40:00","5.8","980.5","77","0","3","13","247.5","247.5","2.1","5.8","5.8","0","0"
"2019-12-13 16:45:00","5.8","980.5","77","0","6","12","247.5","202.5","2.1","3.7","5.8","0","0"
"2019-12-13 16:50:00","5.7","980.5","78","0","5","12","225","202.5","2.2","4","5.7","0","0"
"2019-12-13 16:55:00","5.7","980.6","78","0","5","13","225","202.5","2.1","3.9","5.7","0","0"
"2019-12-13 17:00:00","5.6","980.5","78","0","5","12","247.5","202.5","2.1","3.9","5.6","0","0"
"2019-12-13 17:05:00","5.6","980.4","78","0","4","10","202.5","202.5","2","4.2","5.6","0","0"
"2019-12-13 17:10:00","5.5","980.2","77","0","3","11","247.5","202.5","1.8","5.5","5.5","0","0"
"2019-12-13 17:15:00","5.4","980.4","78","0","2","11","202.5","202.5","1.9","5.4","5.4","0","0"
"2019-12-13 17:20:00","5.4","980.5","77","0","6","12","202.5","202.5","1.7","3.2","5.4","0","0"
"2019-12-13 17:25:00","5.3","980.6","77","0","6","12","202.5","225","1.6","3.1","5.3","0","0"
"2019-12-13 17:30:00","5.3","980.5","77","0","5","11","202.5","247.5","1.6","3.5","5.3","0","0"
"2019-12-13 17:35:00","5.2","980.2","77","0","6","18","225","247.5","1.5","3","5.2","0","0"
"2019-12-13 17:40:00","5.2","980.4","77","0","7","19","202.5","180","1.5","2.7","5.2","0","0"
"2019-12-13 17:45:00","5.2","980.1","77","0","5","15","202.5","202.5","1.5","3.3","5.2","0","0"
"2019-12-13 17:50:00","5.2","980.5","77","0","4","11","202.5","202.5","1.5","3.8","5.2","0","0"
"2019-12-13 17:55:00","5.2","980.5","77","0","6","20","202.5","202.5","1.5","2.9","5.2","0","0"
"2019-12-13 18:00:00","5.2","980.5","77","0","5","16","225","202.5","1.5","3.3","5.2","0","0"
"2019-12-13 18:05:00","5.2","980.5","77","0","6","15","247.5","202.5","1.5","2.9","5.2","0","0"
"2019-12-13 18:10:00","5.2","980.6","77","0","5","13","202.5","225","1.5","3.3","5.2","0","0"
"2019-12-13 18:15:00","5.2","980.4","77","0","6","16","202.5","202.5","1.5","2.9","5.2","0","0"
"2019-12-13 18:20:00","5.2","980.4","77","0","5","13","225","225","1.5","3.3","5.2","0","0"
"2019-12-13 18:25:00","5.2","980.5","77","0","6","14","202.5","225","1.5","2.9","5.2","0","0"
"2019-12-13 18:30:00","5.2","980.5","77","0","6","15","202.5","180","1.5","2.9","5.2","0","0"
"2019-12-13 18:35:00","5.2","980.5","77","0","5","10","202.5","225","1.5","3.3","5.2","0","0"
"2019-12-13 18:40:00","5.1","980.6","77","0","4","10","225","225","1.4","3.7","5.1","0","0"
"2019-12-13 18:45:00","5.1","980.4","77","0","6","12","225","225","1.4","2.9","5.1","0","0"
"2019-12-13 18:50:00","5.1","980.4","78","0","4","12","225","202.5","1.6","3.7","5.1","0","0"
"2019-12-13 18:55:00","5.1","980.4","78","0","4","10","202.5","225","1.6","3.7","5.1","0","0"
"2019-12-13 19:00:00","5.1","980.4","78","0","5","13","202.5","247.5","1.6","3.3","5.1","0","0"
"2019-12-13 19:05:00","5.1","980.2","78","0","6","11","202.5","247.5","1.6","2.9","5.1","0","0"
"2019-12-13 19:10:00","5.1","980.1","78","0","5","10","225","247.5","1.6","3.3","5.1","0","0"
"2019-12-13 19:15:00","5.1","979.9","78","0","4","13","202.5","202.5","1.6","3.7","5.1","0","0"
"2019-12-13 19:20:00","5.1","979.8","78","0","5","12","225","180","1.6","3.3","5.1","0","0"
"2019-12-13 19:25:00","5.1","979.6","78","0","3","10","225","225","1.6","5.1","5.1","0","0"
"2019-12-13 19:30:00","5.2","979.4","78","0","3","7","225","202.5","1.6","5.2","5.2","0","0"
"2019-12-13 19:35:00","5.2","979.1","78","0","3","9","202.5","202.5","1.6","5.2","5.2","0","0"
"2019-12-13 19:40:00","5.2","979","78","0","3","7","225","225","1.6","5.2","5.2","0","0"
"2019-12-13 19:45:00","5.2","978.9","78","0","1","6","225","225","1.6","5.2","5.2","0","0"
"2019-12-13 19:50:00","5.2","979.4","79","0","1","6","225","225","1.8","5.2","5.2","0","0"
"2019-12-13 19:55:00","5.2","979.3","79","0","1","7","225","225","1.8","5.2","5.2","0","0"
"2019-12-13 20:00:00","5.2","979.3","79","0","4","11","202.5","202.5","1.8","3.8","5.2","0","0"
"2019-12-13 20:05:00","5.2","979.2","79","0","5","11","202.5","225","1.8","3.3","5.2","0","0"
"2019-12-13 20:10:00","5.2","978.9","79","0","2","6","225","225","1.8","5.2","5.2","0","0"
"2019-12-13 20:15:00","5.2","978.6","79","0","0","3","225","225","1.8","5.2","5.2","0","0"
"2019-12-13 20:20:00","5.2","978.6","79","0","0","5","225","225","1.8","5.2","5.2","0","0"
"2019-12-13 20:25:00","5.2","978.4","79","0","1","5","225","225","1.8","5.2","5.2","0","0"
"2019-12-13 20:30:00","5.2","978.6","79","0","1","6","225","225","1.8","5.2","5.2","0","0"
"2019-12-13 20:35:00","5.2","978.9","79","0","1","9","225","202.5","1.8","5.2","5.2","0","0"
"2019-12-13 20:40:00","5.1","979","79","0","0","2","225","225","1.8","5.1","5.1","0","0"
"2019-12-13 20:45:00","5.1","979.2","79","0","0","1","202.5","202.5","1.8","5.1","5.1","0","0"
"2019-12-13 20:50:00","5.1","979","79","0","0","0","","","1.7","5.1","5.1","0","0"
"2019-12-13 20:55:00","5.1","979","79","0","0","0","","","1.7","5.1","5.1","0","0"
"2019-12-13 21:00:00","5.1","979","80","0","0","1","202.5","202.5","1.9","5.1","5.1","0","0"
"2019-12-13 21:05:00","5.1","979","80","0","0","0","","","1.9","5.1","5.1","0","0"
"2019-12-13 21:10:00","5","978.9","80","0","2","7","202.5","202.5","1.8","5","5","0","0"
"2019-12-13 21:15:00","5","978.7","80","0","1","5","202.5","202.5","1.8","5","5","0","0"
"2019-12-13 21:20:00","5","978.7","80","0","0","4","202.5","202.5","1.8","5","5","0","0"